ROMMA est une association bénévole à but non lucratif. Votre soutien est indispensable : ADHERER à ROMMA ou FAIRE un DON

Trept - (38, Isère)

Plateau de Crémieu (265 m)   Longitude: 5° 19' 27" E   Latitude: 45° 41' 15"N Station partenaire n°94
 

Détail journalier du     <<     >>

Température Precipitation Humidité Pression Vent Dir Rafale Dir. rafale
Heure (°C) (mm) (%) (hPa) (km/h) (km/h)
01:00 14.407410201N8NE
02:00 13.007510201NE6NE
03:00 13.207410202NE13NO
04:00 11.908210203NO15NNO
05:00 11.108510202O6NO
06:00 11.108510202SO6ONO
07:00 11.108310203O6ONO
08:00 11.208310202SO6O
09:00 11.708310201O6O
10:00 13.607910201O5O
11:00 18.905310204NO18ONO
12:00 20.204010207ONO23NNE
13:00 21.703910196NNE23N
14:00 22.303810197NNE23O
15:00 23.003710186NNE23NO
16:00 21.804210186NE26NO
17:00 21.904310177NNE23NNO
18:00 21.704310176NE19NO
19:00 21.104310175NNE16NNE
20:00 18.905110172NE13NNE
21:00 17.205610181NO5NNO
22:00 16.406310187NNE26NE
23:00 15.20.27410188NNE27NNE
minuit 13.418710183NO23NNE

Graphique du 07-09-2019

 

Serveur OMMA